Location: Beetenbrück
(52.8113°N, 9.5946°E)
Time: 17:13:11
(UTC+00:00)

COSMOS 2428 - Pass Details

Date: 14 April 2026
Orbit: 843 x 855 km, 70.9° (Epoch: 9 May)

Event Time Altitude Azimuth Distance (km) Brightness Sun altitude
Rises 18:53:05 0° 178° (S) 3,412 5.6 -5.6°
Reaches altitude 10° 18:55:43 10° 170° (S) 2,481 4.8 -6.0°
Maximum altitude 19:00:46 34° 107° (ESE) 1,380 3.3 -6.7°
Drops below altitude 10° 19:05:52 10° 45° (NE) 2,498 5.0 -7.4°
Sets 19:08:31 0° 36° (NE) 3,438 5.8 -7.7°
